GFSFLT2_sfc_dewp_135.txt.gz
Dewpoint
19 17 19 18 21 40 43 43 36 44 50 52 51 53 54 58 59 61 61 59 55 55 58 61 61 65 67 70 69 70 70 72
28 29 39 39 40 33 38 36 34 44 45 48 50 54 56 56 57 61 63 63 61 56 56 61 62 66 68 69 70 70 70 71
29 37 37 40 39 39 39 43 40 41 45 52 55 56 56 57 59 63 64 63 64 64 63 60 61 66 68 70 70 69 69 70
37 39 40 44 41 38 35 40 44 43 44 54 57 58 56 56 62 62 63 63 65 65 65 65 61 66 68 69 70 70 70 69
30 34 40 36 37 39 34 37 42 40 42 54 57 57 58 55 60 62 63 64 65 66 66 66 67 63 68 69 69 70 69 69
23 31 39 37 36 38 37 36 40 40 40 48 51 56 56 58 61 61 62 64 65 64 62 62 66 69 66 69 70 69 69 69
25 25 36 34 32 34 41 38 36 37 46 49 50 55 58 60 62 62 63 64 64 63 62 63 63 66 70 68 70 71 70 68
31 28 27 28 30 34 36 39 45 43 45 52 54 56 58 60 59 59 61 61 64 64 63 62 63 64 70 68 67 68 66 69
30 32 27 28 29 29 35 42 45 43 46 53 51 56 58 59 59 59 60 61 62 64 64 64 66 68 68 68 69 69 71 71
29 30 25 25 32 27 35 41 46 47 48 52 53 58 58 59 58 59 60 60 61 62 63 65 67 67 68 68 68 69 69 69
28 27 25 26 33 34 41 46 50 50 51 52 56 57 56 58 59 59 60 61 62 63 63 63 64 65 67 66 68 68 69 70
27 28 24 37 35 35 32 43 50 50 49 53 56 52 54 58 58 59 60 61 62 63 62 61 62 64 65 66 67 68 69 69
32 28 28 41 38 36 30 45 48 50 53 49 47 52 54 59 59 60 60 62 62 62 61 61 63 65 64 65 66 68 70 69
35 32 32 44 41 42 47 46 53 55 57 57 56 57 60 60 59 59 60 61 61 61 62 62 62 62 62 62 64 65 65 66
33 35 45 45 41 41 41 43 46 56 58 58 59 58 59 59 59 60 58 60 61 61 61 61 61 61 60 61 63 63 62 63
37 36 39 41 43 44 40 39 42 54 57 52 48 51 57 58 58 58 58 59 60 60 61 60 61 61 61 60 61 61 58 58
37 41 42 46 50 49 48 48 49 50 57 54 52 55 56 57 57 58 57 58 59 59 59 60 60 60 60 60 59 58 57 57
37 42 44 45 50 51 48 50 50 49 54 59 58 56 56 57 57 57 57 58 59 58 58 58 59 59 60 61 60 58 57 56
43 45 44 51 50 52 48 48 49 49 53 58 59 56 57 57 57 57 56 56 58 57 57 57 55 53 55 59 59 58 57 57

GFSFLT2_sfc_dewp_138.txt.gz
Dewpoint
20 28 17 23 34 39 40 39 34 39 46 51 51 53 55 57 58 59 59 63 60 59 59 61 63 66 67 69 68 69 69 69
31 36 38 35 39 30 36 32 32 39 44 45 47 54 56 57 57 58 61 64 64 64 60 61 62 66 66 69 67 68 68 70
37 37 35 34 35 37 39 40 36 36 41 52 53 56 55 57 59 61 62 64 65 65 65 61 61 65 66 68 68 68 69 70
37 39 41 43 38 35 32 37 41 40 39 54 57 56 54 54 54 58 64 64 65 66 66 66 61 63 66 68 68 68 69 71
29 27 35 34 37 37 36 41 39 37 38 55 57 57 54 53 52 59 63 64 65 64 63 63 67 67 66 68 68 68 69 69
23 23 33 35 35 37 36 35 36 39 47 49 53 54 53 50 55 62 63 64 65 63 63 63 64 66 68 70 71 70 69 69
23 25 32 34 33 36 38 36 37 38 46 48 51 52 53 55 59 61 61 62 64 64 63 63 63 64 68 68 69 69 70 69
28 30 28 31 32 34 39 39 43 44 46 49 51 57 57 58 59 59 60 61 63 65 64 63 64 66 67 67 69 68 68 69
27 28 26 23 29 33 37 42 43 40 43 54 53 57 59 59 58 58 59 60 60 62 64 64 65 67 67 67 67 68 67 68
24 25 21 24 33 35 39 43 44 46 50 52 55 58 59 59 58 59 59 60 59 61 62 64 65 66 67 68 68 69 68 68
22 25 24 24 35 39 41 46 49 49 51 57 57 56 56 59 59 59 59 61 61 61 61 63 61 64 65 66 67 69 68 67
25 23 23 33 38 47 47 45 50 51 53 56 55 50 54 58 58 59 60 61 62 63 62 60 61 62 64 65 65 67 68 68
28 26 27 39 40 38 29 39 50 50 51 53 53 53 56 58 59 59 60 62 62 61 61 62 62 63 64 65 65 68 68 68
32 30 27 42 38 38 45 50 49 52 54 52 52 53 56 58 58 58 59 61 60 61 61 61 62 63 63 62 64 65 66 66
30 32 36 41 38 44 44 51 52 54 56 55 51 53 57 57 58 59 59 59 60 60 61 61 61 62 61 62 62 62 64 64
33 34 40 42 42 41 40 42 55 57 57 57 55 56 56 56 57 57 59 59 60 60 60 59 60 61 61 61 60 60 60 59
33 35 41 43 47 46 47 49 54 58 57 56 51 52 54 55 56 56 57 59 59 59 60 59 60 60 60 59 59 57 57 57
33 39 34 38 46 50 48 49 53 57 57 58 57 57 58 56 56 56 57 58 59 58 60 59 57 59 60 60 58 57 56 56
38 42 39 46 48 49 49 50 54 54 55 55 55 57 57 56 56 56 56 58 58 57 57 55 55 56 58 58 58 57 57 56

GFSFLT2_sfc_dewp_141.txt.gz
Dewpoint
34 33 18 25 35 35 38 35 33 37 43 48 51 55 56 58 59 59 60 61 60 60 61 62 62 65 66 67 66 68 68 69
33 37 37 32 37 31 34 30 29 37 42 42 47 54 56 58 58 59 62 62 63 63 58 61 62 64 66 66 66 68 68 68
36 35 33 31 32 37 38 37 33 33 38 49 51 55 54 56 57 60 63 64 64 64 65 61 62 64 65 66 66 67 69 69
34 38 40 40 34 34 31 34 39 38 38 53 56 55 55 55 56 59 64 64 64 65 64 65 62 63 64 66 67 67 67 68
31 26 35 33 36 36 37 40 38 36 35 53 56 57 57 54 54 61 63 64 65 63 63 64 66 64 65 66 67 67 68 68
28 22 29 35 36 35 33 34 35 39 39 49 51 54 55 53 60 62 63 64 63 63 63 63 64 65 68 68 69 68 68 68
24 24 26 30 33 36 36 36 34 35 44 46 50 52 53 55 61 61 61 62 64 62 62 62 63 65 67 68 69 69 69 68
27 29 26 28 29 34 37 38 43 43 44 49 49 53 56 57 60 59 59 60 63 64 63 62 65 65 66 66 68 68 67 67
25 27 24 24 26 28 38 40 43 42 41 51 49 53 55 58 58 58 58 60 62 62 64 64 64 66 66 67 67 67 67 68
22 24 19 22 29 34 40 42 44 45 51 52 53 56 59 59 58 58 59 59 60 61 62 64 65 66 67 68 67 67 67 66
21 21 21 23 35 39 39 45 49 47 53 56 56 55 55 58 59 58 59 59 60 61 61 62 62 62 65 65 67 66 66 65
26 21 19 25 38 46 43 39 50 50 55 56 55 46 49 57 58 59 59 61 61 62 61 60 60 61 63 64 66 68 66 66
27 22 25 30 40 43 29 33 49 51 55 55 52 50 51 57 58 59 60 61 61 61 61 62 63 63 65 65 65 66 68 68
30 28 27 37 37 31 38 48 50 51 53 55 54 52 54 56 57 59 60 60 59 61 61 61 62 64 63 63 64 65 66 66
31 32 35 39 33 42 49 49 49 51 53 53 53 52 55 56 56 58 59 59 60 60 60 60 61 62 62 62 63 64 64 63
31 34 37 43 43 45 46 49 49 52 53 55 52 53 56 56 57 57 58 58 59 59 59 59 60 61 61 61 62 62 61 60
33 34 39 42 44 43 46 50 55 57 56 55 55 55 56 56 56 56 58 58 58 59 59 58 60 60 60 61 60 59 59 59
31 35 32 35 46 49 49 51 55 56 55 54 55 55 55 56 56 55 57 57 57 59 58 57 58 60 60 59 59 58 56 56
36 40 38 44 47 49 50 54 56 57 56 55 54 54 55 55 55 56 56 57 57 57 58 56 56 58 59 59 59 58 57 56

GFSFLT2_sfc_dewp_147.txt.gz
Dewpoint
36 29 27 28 23 28 35 38 33 38 41 45 52 52 53 55 58 58 59 60 60 61 62 63 64 66 67 68 69 69 69 70
34 37 38 32 39 31 34 30 26 33 38 38 48 51 52 56 57 59 60 61 61 61 62 63 63 64 66 67 68 68 69 69
35 36 35 36 36 38 36 37 29 30 31 45 49 51 53 56 57 58 61 62 65 62 63 63 64 63 65 66 67 68 68 69
33 38 38 37 37 36 27 37 43 41 33 44 52 53 54 56 57 56 57 63 65 65 65 66 64 64 63 65 66 67 68 70
31 31 37 34 35 35 37 40 42 31 30 49 55 56 56 54 55 57 61 63 65 66 66 65 66 67 66 65 65 66 68 68
23 28 32 34 34 38 34 32 36 35 33 38 46 54 55 57 55 57 61 63 64 64 65 66 67 68 69 67 67 67 67 68
30 25 29 27 31 35 36 35 32 31 38 39 45 49 54 54 57 58 58 61 63 64 62 64 66 68 69 69 70 70 69 69
26 27 27 28 30 33 34 36 38 38 38 43 49 54 55 55 56 56 58 60 61 63 63 64 66 67 68 68 70 71 71 71
25 29 25 25 27 30 33 36 36 38 38 50 50 52 54 55 57 58 59 59 61 63 64 65 65 67 67 68 70 71 71 71
26 29 25 24 28 29 30 34 39 42 44 49 50 52 56 59 58 59 59 60 61 63 64 64 66 67 67 68 68 68 69 69
27 24 24 22 34 40 39 32 42 42 50 52 55 53 52 59 60 58 59 61 63 64 64 65 65 65 66 65 67 68 68 67
29 22 21 26 34 41 43 37 47 46 51 53 54 42 46 59 59 60 60 61 63 64 64 63 64 65 65 65 66 67 67 68
28 24 25 32 42 41 36 34 49 49 52 54 50 50 56 59 60 60 61 62 63 63 63 64 64 65 64 65 66 68 68 69
30 28 24 35 41 39 43 45 52 52 55 56 56 55 58 59 60 61 61 62 61 61 62 63 64 64 65 66 67 67 68 67
31 30 42 44 44 47 46 51 53 54 55 56 57 55 57 59 60 61 62 62 61 60 62 63 64 64 63 64 65 67 67 65
37 40 39 43 45 44 48 49 52 52 52 55 50 53 56 58 59 61 61 61 60 60 60 62 62 63 63 63 65 65 64 63
39 40 42 43 46 45 50 50 51 53 52 53 53 53 55 59 61 61 62 61 60 59 60 61 62 62 63 63 63 61 61 59
36 47 47 47 48 48 49 49 50 51 53 55 56 57 57 59 61 62 62 61 61 60 60 61 61 61 61 62 62 62 60 60
43 44 42 45 49 50 49 48 50 51 54 54 56 58 57 59 61 60 62 62 61 60 60 61 62 61 61 61 62 61 61 59